Home   Weather   Ettelbruck   Past weeks

Flag for Luxembourg Past Weather in Ettelbruck, Luxembourg — Yesterday and Last 2 Weeks

Now
22 °F

Clear.


Feels Like: 22 °F
Forecast: 15 / 29 °F
Wind: 2 mph from Northeast

Location: Luxembourg / Luxembourg

Current Time: Jan 22, 2017 at 11:50:48 pm

Latest Report: Jan 22, 2017 at 11:00 pm


Visibility: 6 mi

Pressure: 30.35 "Hg

Humidity: 80%

Dew Point: 17 °F

Location of EttelbruckLocation

Past Weather in Ettelbruck — Graph

°F

Ettelbruck Temperature Yesterday

Maximum temperature yesterday: 34 °F (at 4:00 pm)
Minimum temperature yesterday: 22 °F (at 9:00 am)
Average temperature yesterday: 28 °F

High & Low Weather Summary for the Past Weeks

 TemperatureHumidityPressure
High42 °F (Jan 11, 7:00 pm)100% (Jan 8, 7:00 am)30.65 "Hg (Jan 8, 7:00 am)
Low19 °F (Jan 18, 9:00 am)43% (Jan 20, 8:00 pm)29.18 "Hg (Jan 13, 12:00 am)
Average30 °F84%30.24 "Hg
* Reported Jan 7 10:00 pm — Jan 22 10:00 pm, Ettelbruck, Weather by CustomWeather, © 2017

Note: Actual official high and low records may vary slightly from our data, if they occured in-between our weather recording intervals... More about our weather records

Advertising

Ettelbruck Weather History for the Previous 24 Hours

Scroll right to see more
 ConditionsComfort  
Time TempWeatherWind HumidityBarometerVisibility
10:00 pm
Sun, Jan 22
24 °FClear.3 mph74%30.33 "Hg6 mi
9:00 pm26 °FPassing clouds.3 mph69%30.32 "Hg7 mi
8:00 pm26 °FClear.3 mph71%30.33 "Hg7 mi
7:00 pm28 °FPassing clouds.2 mph67%30.30 "Hg9 mi
6:00 pm30 °FPassing clouds.3 mph61%30.28 "Hg9 mi
5:00 pm33 °FPassing clouds.3 mph55%30.27 "Hg8 mi
4:00 pm34 °FPassing clouds.3 mph52%30.28 "Hg7 mi
3:00 pm35 °FPassing clouds.6 mph50%30.27 "Hg8 mi
2:00 pm35 °FPassing clouds.3 mph52%30.29 "Hg7 mi
1:00 pm31 °FPassing clouds.N/A63%30.33 "Hg7 mi
12:00 pm27 °FPassing clouds.2 mph71%30.35 "Hg7 mi
11:00 am25 °FPassing clouds.5 mph74%30.36 "Hg7 mi
10:00 am23 °FPassing clouds.5 mph77%30.36 "Hg7 mi
9:00 am22 °FSunny.6 mph77%30.34 "Hg7 mi
8:00 am22 °FClear.5 mph76%30.35 "Hg7 mi
7:00 am22 °FClear.5 mph76%30.35 "Hg7 mi
6:00 am21 °FClear.2 mph81%30.37 "Hg7 mi
5:00 am19 °FClear.2 mph83%30.39 "Hg7 mi
4:00 am22 °FClear.3 mph80%30.38 "Hg7 mi
3:00 am23 °FPassing clouds.2 mph78%30.39 "Hg8 mi
2:00 am25 °FClear.3 mph75%30.39 "Hg9 mi
1:00 am23 °FClear.2 mph77%30.40 "Hg9 mi
12:00 am26 °FClear.3 mph71%30.40 "Hg9 mi
11:00 pm
Sat, Jan 21
26 °FClear.2 mph71%30.40 "Hg9 mi
Weather by CustomWeather, © 2017

See weather overviewHow to use our weather pages